{"data":{"norad_id":62730,"epoch":"2026-05-25T04:01:51.617856Z","epoch_age_seconds":60815,"freshness":"FRESH","line1":"1 62730U 25013B   26145.16795854  .00003094  00000+0  18805-3 0  9992","line2":"2 62730  97.6550 314.5282 0014902  89.4811 270.8126 15.11143366 73854","mean_motion":15.11143366,"eccentricity":0.0014902,"inclination_deg":97.655,"raan_deg":314.5282,"arg_perigee_deg":89.4811,"mean_anomaly_deg":270.8126,"bstar":0.00018805,"rev_number":7385,"period_min":95.29208362352,"perigee_km":522.41331799839,"apogee_km":543.01041195557,"semimajor_km":6910.848864977,"source":"CELESTRAK","updated_at":"2026-05-25T13:38:03.211065Z"}}